This demonstration page uses our WeatherBlox Daily Observations layout. Learn more.

Left ArrowRight Arrow

Hourly Observations for July 19, 2016

Temp ( °F °C ) Dew Point ( °F °C ) Humidity (%) Winds ( mph kmh ) Pressure ( in mb ) Visibility ( mi km ) Precip ( " mm )
12:59 am 00:59 Mostly Cloudy 83 28.3 74 23.3 74 74 SSW 10 17 30.10 1019 10 16 0.00 0.00
1:23 am 01:23 Mostly Cloudy with Thunderstorms 83 28.3 74 23.3 74 74 SSW 9 15 30.09 1019 10 16 0.00 0.00
1:45 am 01:45 Mostly Cloudy with Thunderstorms 82 27.8 72 22.2 72 72 NNW 24 39 30.12 1020 10 16 0.00 0.00
1:49 am 01:49 Mostly Cloudy with Thunderstorms 80 26.7 70 21.1 71 71 NNW 22 35 30.12 1020 10 16 0.00 0.00
1:54 am 01:54 Cloudy with Thunderstorms 81 27 72 22 74 74 NNW 21 33 30.12 1020 10 16 0.00 0.00
1:59 am 01:59 Cloudy with Thunderstorms 79 26.1 70 21.1 74 74 NW 20 31 30.12 1020 10 16 0.00 0.00
2:22 am 02:22 Cloudy with Thunderstorms 77 25 71 21.7 82 82 NW 17 28 30.15 1021 10 16 0.00 0.00
2:59 am 02:59 Cloudy with Thunderstorms 76 24.4 68 20 77 77 NW 8 13 30.11 1020 10 16 0.00 0.00
3:12 am 03:12 Cloudy with Thunderstorms 75 23.9 69 20.6 82 82 Calm 30.12 1020 10 16 0.00 0.03
3:16 am 03:16 Cloudy with Thunderstorms 75 23.9 69 20.6 82 82 Calm 30.12 1020 10 16 0.00 0.03
3:30 am 03:30 Mostly Cloudy 75 23.9 69 20.6 82 82 S 5 7 30.12 1020 10 16 0.00 0.03
3:59 am 03:59 Mostly Cloudy 75 23.9 69 20.6 82 82 SSW 6 9 30.11 1020 10 16 0.00 0.03
4:59 am 04:59 Mostly Cloudy 73 22.8 69 20.6 87 87 SSW 3 6 30.12 1020 10 16 0.00 0.00
5:29 am 05:29 Mostly Cloudy 76 24.4 70 21.1 82 82 Calm 30.12 1020 10 16 0.00 0.00
5:49 am 05:49 Mostly Cloudy 75 23.9 70 21.1 84 84 Calm 30.12 1020 10 16 0.00 0.00
5:59 am 05:59 Mostly Cloudy 74 23.3 70 21.1 88 88 Calm 30.12 1020 10 16 0.00 0.00
6:59 am 06:59 Mostly Cloudy 76 24.4 72 22.2 88 88 NE 3 6 30.14 1021 10 16 0.00 0.00
7:59 am 07:59 Partly Cloudy 82 27.8 73 22.8 74 74 Calm 30.15 1021 10 16 0.00 0.00
8:59 am 08:59 Partly Cloudy 83 28.3 72 22.2 70 70 NW 5 7 30.16 1021 10 16 0.00 0.00
9:59 am 09:59 Mostly Cloudy 82 27.8 73 22.8 74 74 Calm 30.17 1022 9 14 0.00 0.00
10:59 am 10:59 Mostly Cloudy 83 28.3 71 21.7 67 67 VRB 3 6 30.18 1022 10 16 0.00 0.00
11:59 am 11:59 Mostly Cloudy 86 30 70 21.1 59 59 SSE 3 6 30.18 1022 10 16 0.00 0.00
12:59 pm 12:59 Mostly Cloudy 87 30.6 70 21.1 57 57 VRB 7 11 30.17 1022 10 16 0.00 0.00
1:59 pm 13:59 Mostly Cloudy 90 32.2 74 23.3 59 59 VRB 7 11 30.14 1021 10 16 0.00 0.00
2:59 pm 14:59 Mostly Cloudy 90 32.2 72 22.2 56 56 NNE 3 6 30.13 1020 10 16 0.00 0.00
3:59 pm 15:59 Mostly Cloudy 91 32.8 73 22.8 56 56 VRB 6 9 30.11 1020 10 16 0.00 0.00
4:59 pm 16:59 Mostly Cloudy 90 32.2 71 21.7 54 54 NE 5 7 30.10 1019 10 16 0.00 0.00
5:59 pm 17:59 Mostly Cloudy 88 31.1 73 22.8 61 61 E 8 13 30.08 1019 10 16 0.00 0.00
6:59 pm 18:59 Mostly Cloudy 84 28.9 73 22.8 70 70 ENE 9 15 30.11 1020 10 16 0.00 0.00
7:27 pm 19:27 Cloudy with Thunderstorms 84 28.9 73 22.8 70 70 undefined N/A 30.12 1020 10 16 0.00 0.00
7:59 pm 19:59 Cloudy with Thunderstorms 76 24.4 70 21.1 82 82 S 18 30 30.16 1021 9 14 0.00 0.03
8:06 pm 20:06 Cloudy with Thunderstorms 73 22.8 67 19.4 81 81 SSW 17 28 30.18 1022 10 16 0.00 0.03
8:59 pm 20:59 Cloudy with Thunderstorms 71 21.7 65 18.3 81 81 S 8 13 30.11 1020 10 16 0.07 1.78
9:15 pm 21:15 Mostly Cloudy 71 21.7 65 18.3 81 81 ESE 10 17 30.12 1020 10 16 0.00 0.00
9:59 pm 21:59 Mostly Cloudy 71 21.7 67 19.4 87 87 Calm 30.15 1021 10 16 0.00 0.00
10:59 pm 22:59 Mostly Cloudy 74 23.3 68 20 82 82 NW 10 17 30.15 1021 10 16 0.00 0.00
11:59 pm 23:59 Partly Cloudy 72 22.2 68 20 87 87 WSW 3 6 30.13 1020 10 16 0.00 0.00

Powered by AerisWeather